Regional Weather Roundup
Issued by NWS

Home | Current Version | Previous Version | Graphics & Text | Print | Product List | Glossary On
Versions: 1 2 3 4 5 6 7 8 9 10 11 12 13 14 15 16 17 18 19 20 21 22 23 24 25 26 27
000
ASUS45 KBOU 180510
RWRCO

WEATHER ROUNDUP FOR COLORADO
NATIONAL WEATHER SERVICE DENVER/BOULDER CO
1000 PM MST WED JAN 17 2018

NOTE: "FAIR" INDICATES FEW OR NO CLOUDS BELOW 12000 FEET WITH NO
SIGNIFICANT WEATHER AND/OR OBSTRUCTIONS TO VISIBILITY.

COZ001>005-013-030-031-180600-
...NORTHWEST COLORADO...

CITY           SKY/WX    TMP DP  RH WIND       PRES   REMARKS
CRAIG          FAIR      13   7  77 CALM      30.38R
HAYDEN         FAIR     N/A N/A N/A E9        30.38S
MEEKER         FAIR      24  19  81 E6        30.36S WCI  17
RABBIT EARS PA FAIR      19  16  86 W9G17     30.34F WCI   9
STEAMBOAT SPGS FAIR      15   9  80 CALM      30.37S
WALDEN         FAIR      14   7  73 SE6       30.34R WCI   5
$$

COZ006>008-011-180600-
...WEST CENTRAL VALLEYS...

CITY           SKY/WX    TMP DP  RH WIND       PRES   REMARKS
GRAND JUNCTION FAIR      32  13  45 E6        30.36S WCI  26
MONTROSE       FAIR      22  13  68 S8        30.39R WCI  12
EAGLE          FAIR      17   7  64 E3        30.42R
RIFLE          FAIR      24  16  71 CALM      30.38R
DELTA          FAIR      27  13  56 NE7       30.39R WCI  19
NUCLA          FAIR      30  14  51 E8        30.38S WCI  23
$$

COZ017>023-064>068-180600-
...SOUTHWEST COLORADO...

CITY           SKY/WX    TMP DP  RH WIND       PRES   REMARKS
DURANGO        FAIR      23  16  74 NE5       30.33S WCI  17
CORTEZ         FAIR      21  17  84 E6        30.34R WCI  13
PAGOSA SPRINGS FAIR      24  17  75 CALM      30.34R
TELLURIDE      FAIR      27  10  49 SE7       30.38R WCI  19
WOLF CREEK PAS FAIR      25 -13  18 CALM      30.44S
$$

COZ009-010-012-014-032>034-037-058>063-180600-
...CENTRAL COLORADO...

CITY           SKY/WX    TMP DP  RH WIND       PRES   REMARKS
ASPEN          FAIR      22  10  60 S6        30.36R WCI  14
BUENA VISTA    FAIR      23   9  53 NW6       30.32S WCI  16
COPPER MTN     NOT AVBL
BERTHOUD PASS  FAIR      14   3  62 NW21G29   30.34R WCI  -4
COTTONWOOD PAS   N/A     36   5  27 NW7       30.33S
GUNNISON       FAIR      11   4  73 CALM      30.41R
KREMMLING      FAIR      14   9  79 CALM      30.41S
LEADVILLE      FAIR      16   8  71 NE10      30.34S WCI   4
MONARCH PASS   FAIR      18   3  53 W23       30.47R WCI   0
SALIDA         FAIR      26  -2  29 W3        30.39S
SUNLIGHT       FAIR      23  12  63 CALM      30.42S
WILKERSON PASS FAIR      25   5  42 W9        30.35F WCI  15
$$

COZ069>075-180600-
...SAN LUIS VALLEY/SANGRE DE CRISTO MOUNTAINS...

CITY           SKY/WX    TMP DP  RH WIND       PRES   REMARKS
ALAMOSA        FAIR       7  -3  64 S5        30.32R WCI  -2
DEL NORTE      FAIR      21  -2  36 SW9       30.32S WCI  11
LA VETA PASS   FAIR      28  -8  20 SW16        N/A  WCI  17
SAGUACHE       FAIR      30   7  37 NW16      30.32R WCI  19
$$

COZ035-036-038>040-180600-
...NORTHERN COLORADO FRONT RANGE...

CITY           SKY/WX    TMP DP  RH WIND       PRES   REMARKS
DENVER INTL AP FAIR      25  15  66 S10       30.21F WCI  15
DMNS CITY PARK NOT AVBL
AURORA         CLEAR     30  13  49 S12       30.22F WCI  20
FRONT RANGE AP FAIR      30  19  61 S9        30.22F WCI  22
ERIE MUNI ARPT FAIR      23  14  69 CALM      30.27F
BOULDER MUN AP FAIR      32  12  43 S3        30.21F
CENTENNIAL     FAIR      30  10  43 SE9       30.22F WCI  22
BROOMFIELD     CLEAR     36   3  25 SW6       30.22F
FORT COLLINS   FAIR      34  13  41 SW3       30.22F
LONGMONT       FAIR      27  13  56 W6        30.23F WCI  21
$$

COZ041-046-047-076>085-087-088-180600-
...PIKES PEAK/PALMER DIVIDE AND SOUTHERN FOOTHILLS...

CITY           SKY/WX    TMP DP  RH WIND       PRES   REMARKS
COLO. SPRINGS  FAIR      23   5  46 N5        30.27F WCI  17
A. F. ACADEMY  FAIR      19   5  55 N10       30.26S WCI   7
SCHRIEVER AFB  FAIR      25   6  44 CALM      30.27F
CHEYENNE MTN   FAIR      32   2  28 CALM      30.21F
ELLICOTT         N/A    N/A N/A N/A CALM      30.25F
FALCON         FAIR      22   5  46 W8        30.27F WCI  13
FORT CARSON    FAIR      28   6  40 N8        30.25F WCI  19
LIMON          FAIR      11   7  84 N5        30.25S WCI   3
MONUMENT HILL  FAIR      23   9  54 S10       30.27S WCI  12
CANON CITY     FAIR      32   5  32 W10       30.27S WCI  24
WALSENBURG     FAIR      28   7  40 CALM      30.27F
TRINIDAD       FAIR      27   8  44 W15       30.27F WCI  15
$$

COZ042>045-048>051-090-091-180600-
...NORTHEAST COLORADO...

CITY           SKY/WX    TMP DP  RH WIND       PRES   REMARKS
GREELEY ARPT   FAIR      19  12  74 N5        30.23F WCI  12
AKRON          FAIR      25  17  72 SW9       30.21F WCI  15
BURLINGTON     FAIR      20  10  65 W10       30.23F WCI   9
WRAY           FAIR      23  18  80 W7        30.24S WCI  15
YUMA           FAIR      18  12  79 W9        30.22F WCI   6
STERLING       FAIR      18  14  86 SW6       30.21F WCI   9
HOLYOKE        FAIR      21  18  86 W9        30.21F WCI  11
FORT MORGAN    FAIR      30  14  53 W6        30.22F WCI  24
$$

COZ086-089-092>099-180600-
...SOUTHEAST COLORADO...

CITY           SKY/WX    TMP DP  RH WIND       PRES   REMARKS
PUEBLO         FAIR      19   9  65 W6        30.27S WCI  11
LA JUNTA       FAIR      27  12  53 W12       30.25F WCI  17
LAMAR          FAIR      15   4  61 SW7       30.24F WCI   5
SPRINGFIELD      N/A     15   8  73 W8        30.25S WCI   4
$$




USA.gov is the U.S. government's official web portal to all federal, state and local government web resources and services.